Location: Newark
(25.3833°N, 97.4000°E)
Time: 11:32:30
(UTC+00:00)

CAS-4A - Visible Passes

Search period start: 27 February 2020 00:00
Search period end: 08 March 2020 00:00
Orbit: 529 x 544 km, 43.0° (Epoch: 26 February)

Date Brightness Start Highest point End Pass type
(mag) Time Alt. Az. Time Alt. Az. Time Alt. Az.
27 Feb ? 11:56:09 10° WNW 12:00:00 42° SW 12:03:53 10° SSE visible
28 Feb ? 11:46:04 10° WNW 11:49:40 30° SW 11:53:16 10° SSE visible
04 Mar ? 23:02:22 10° SE 23:03:01 10° SE 23:03:39 10° ESE visible
05 Mar ? 22:50:18 10° S 22:52:37 15° SE 22:54:56 10° E visible
06 Mar ? 22:39:10 10° S 22:42:14 21° SE 22:45:18 10° E visible
07 Mar ? 22:28:27 10° SSW 22:31:52 28° SE 22:35:24 10° ENE visible
